User: anonymous   Login
Location: Baix
(44.7118°N, 4.7648°E)
Time: 06:47:51
(UTC+00:00)
Language:

TIMED - Orbit

View from above orbital plane
View from above orbital plane
View from above satellite
View from above satellite

Ground track
Ground track

The orbit data is extracted from the following two-line orbital elements,

1 26998U 01055B   20295.71020113  .00000168  00000-0  22207-4 0  9990
2 26998  74.0741  41.8494 0000373 310.4162  49.6986 14.88223770 23323
Epoch (UTC): 21 October 2020 17:02:41
Eccentricity: 0.0000373
inclination: 74.0741°
perigee height: 603 km
apogee height: 604 km
right ascension of ascending node: 41.8494°
argument of perigee: 310.4162°
revolutions per day: 14.88223770
mean anomaly at epoch: 49.6986°
orbit number at epoch: 2332

The dashed part of the orbit path shows where the satellite is in the earth's shadow,  

DLR